Weather History for KDEW - March, 2014

Change the Weather History Date:

Wednesday, March 19, 2014

  Actual Average Record
Temperature  
Mean Temperature 35 °F 39 °F  
Max Temperature 44 °F 50 °F 64 °F (1999)
Min Temperature 26 °F 28 °F 18 °F (2013)
Degree Days  
Heating Degree Days 30 26  
Month to date heating degree days 544 551  
Since 1 July heating degree days 5938 5916  
Cooling Degree Days 0 0  
Month to date cooling degree days 0 0  
Year to date cooling degree days 0 0  
Moisture  
Dew Point 29 °F    
Average Humidity 72    
Maximum Humidity 92    
Minimum Humidity 51    
Precipitation  
Precipitation 0.11 in 0.08 in 0.27 in (2007)
Month to date precipitation 3.34 1.14  
Year to date precipitation 7.06 5.37  
Sea Level Pressure  
Sea Level Pressure 30.01 in    
Wind  
Wind Speed 5 mph (SW)    
Max Wind Speed 16 mph    
Max Gust Speed 19 mph    
Visibility 9 miles    
Events Rain    
T = Trace of Precipitation, MM = Missing Value Source: NWS Daily Summary

Daily Weather History Graph

Daily Weather History Graph

Search for Another Location

Airport or City:

Trip Planner

Search our weather history database for the weather conditions in past years. The results will help you decide how hot, cold, wet, or windy it might be!

Date:

Astronomy

Mar. 19, 2014 Rise Set
Actual Time 6:54 AM PDT 7:01 PM PDT
Civil Twilight 6:23 AM PDT 7:32 PM PDT
Nautical Twilight 5:47 AM PDT 8:08 PM PDT
Astronomical Twilight 5:09 AM PDT 8:46 PM PDT
Moon 10:40 PM PDT (3/19) 8:09 AM PDT (3/19)
Length of Visible Light 13h 08m
Length of Day
12h 06m
Waning Gibbous, 90% of the Moon is Illuminated
Mar 19
Waning Gibbous
Mar 23
Last Quarter
Mar 30
New
Apr 7
First Quarter
Apr 15
Full

Hourly Weather History & Observations

Time (PDT) Temp. Windchill Dew Point Humidity Pressure Visibility Wind Dir Wind Speed Gust Speed Precip Events Conditions
12:53 AM 28.9 °F - 21.9 °F 75% 30.18 in 10.0 mi Calm Calm - N/A   Clear
1:53 AM 28.0 °F 24.2 °F 21.9 °F 78% 30.17 in 10.0 mi SE 3.5 mph - N/A   Partly Cloudy
2:53 AM 28.0 °F - 21.9 °F 78% 30.17 in 10.0 mi Calm Calm - N/A   Clear
3:53 AM 27.0 °F 21.6 °F 24.1 °F 89% 30.15 in 10.0 mi NW 4.6 mph - N/A   Mostly Cloudy
4:53 AM 28.9 °F - 25.0 °F 85% 30.13 in 10.0 mi Calm Calm - N/A   Overcast
5:53 AM 30.0 °F - 25.0 °F 82% 30.12 in 10.0 mi Calm Calm - N/A   Overcast
6:53 AM 30.0 °F 26.5 °F 26.1 °F 85% 30.11 in 10.0 mi NW 3.5 mph - N/A   Overcast
7:53 AM 32.0 °F 27.5 °F 26.1 °F 79% 30.10 in 10.0 mi NW 4.6 mph - N/A   Overcast
8:53 AM 35.1 °F - 27.0 °F 72% 30.09 in 10.0 mi Calm Calm - N/A   Overcast
9:53 AM 37.9 °F - 27.0 °F 65% 30.07 in 10.0 mi Calm Calm - 0.00 in   Overcast
10:53 AM 39.0 °F 36.8 °F 28.0 °F 65% 30.06 in 10.0 mi Variable 3.5 mph - N/A   Overcast
11:53 AM 41.0 °F 37.1 °F 25.0 °F 53% 30.05 in 10.0 mi South 5.8 mph - N/A   Overcast
12:53 PM 41.0 °F 36.4 °F 28.0 °F 60% 30.04 in 10.0 mi SW 6.9 mph - N/A   Overcast
1:13 PM 39.9 °F 33.4 °F 33.1 °F 77% 29.98 in 9.0 mi SSW 10.4 mph - 0.00 in Rain Light Rain
1:20 PM 39.9 °F 35.1 °F 34.0 °F 79% 29.98 in 10.0 mi SSW 6.9 mph - 0.00 in   Overcast
1:53 PM 39.0 °F 34.0 °F 33.1 °F 79% 30.02 in 10.0 mi West 6.9 mph - 0.00 in Rain Light Rain
2:53 PM 41.0 °F - 35.1 °F 79% 29.98 in 10.0 mi Calm Calm - 0.02 in   Overcast
3:53 PM 42.1 °F 37.7 °F 35.1 °F 76% 29.96 in 10.0 mi ESE 6.9 mph - N/A   Overcast
4:53 PM 43.0 °F 40.3 °F 34.0 °F 71% 29.92 in 10.0 mi East 4.6 mph - 0.01 in   Overcast
5:15 PM 41.0 °F 39.0 °F 34.0 °F 76% 29.88 in 2.0 mi NW 3.5 mph - 0.05 in Rain Rain
5:28 PM 41.0 °F 38.0 °F 35.1 °F 79% 29.88 in 3.0 mi Variable 4.6 mph - 0.08 in Rain Rain
5:53 PM 43.0 °F 39.5 °F 37.0 °F 80% 29.91 in 10.0 mi SSE 5.8 mph - 0.08 in   Scattered Clouds
6:53 PM 37.9 °F 33.5 °F 35.1 °F 89% 29.89 in 10.0 mi ENE 5.8 mph - N/A   Partly Cloudy
7:53 PM 39.0 °F 31.8 °F 34.0 °F 82% 29.88 in 10.0 mi SSE 11.5 mph - N/A   Scattered Clouds
8:53 PM 39.0 °F 35.7 °F 32.0 °F 76% 29.89 in 10.0 mi West 4.6 mph - N/A   Overcast
9:53 PM 37.9 °F 33.5 °F 28.0 °F 68% 29.91 in 10.0 mi WSW 5.8 mph - N/A   Clear
10:53 PM 36.0 °F 28.0 °F 23.0 °F 59% 29.91 in 10.0 mi WSW 11.5 mph - N/A   Clear
11:53 PM 35.1 °F 26.4 °F 21.9 °F 59% 29.93 in 10.0 mi SW 12.7 mph - N/A   Clear